664  
ASUS44 KMEG 210100  
RWRMEG  
MEMPHIS CWA HOURLY WEATHER ROUNDUP  
NATIONAL WEATHER SERVICE MEMPHIS TN  
800 PM CDT MON MAY 20 2024  
   
..WEST TENNESSEE
 
 
 
CITY SKY/WX TMP DP RH WIND PRES REMARKS
 
MEMPHIS INTL CLEAR 83 60 45 SE6 29.87F  
NWS MEMPHIS N/A 82 N/A N/A MISG N/A  
FRAYSER CLEAR 82 64 53 SE7 29.85S  
JACKSON CLEAR 79 67 66 S5 29.89F  
COVINGTON CLEAR 82 63 51 S5 29.87F  
SOMERVILLE CLEAR 79 68 69 CALM 29.88S  
BOLIVAR CLEAR 79 70 73 CALM 29.89S  
LEXINGTON MOCLDY 75 70 83 CALM 29.90S  
SELMER CLEAR 77 68 73 CALM 29.90F  
SAVANNAH CLEAR 81 73 78 CALM 29.89S  
DYERSBURG CLEAR 81 65 58 CALM 29.89S  
UNION CITY CLEAR 79 68 69 S5 29.86S  
PARIS CLEAR 79 66 65 S5 29.89S  
HUNTINGDON CLEAR 79 66 65 CALM 29.88F  
 
   
..EASTERN ARKANSAS
 
 
 
CITY SKY/WX TMP DP RH WIND PRES REMARKS
 
JONESBORO CLEAR 82 65 56 SE6 29.86S  
WEST MEMPHIS CLEAR 77 67 71 SE6 29.85F  
BATESVILLE CLEAR 81 66 60 SE6 29.85F  
NEWPORT CLEAR 80 66 62 S6 29.85S  
WALNUT RIDGE N/A 80 69 69 SE7 29.85S  
BLYTHEVILLE CLEAR 83 61 47 S5 29.86F  
SEARCY CLEAR 81 68 64 SE6 29.85S  
STUTTGART CLEAR 85 65 51 SE7 29.85S  
PINE BLUFF CLEAR 84 67 56 SE6 29.84S  
MONTICELLO CLEAR 82 70 66 CALM 29.85S  
 
   
..NORTH MISSISSIPPI
 
 
 
CITY SKY/WX TMP DP RH WIND PRES REMARKS
 
TUPELO CLEAR 84 65 52 S3 29.89S  
OXFORD CLEAR 77 66 69 CALM 29.91S  
TUNICA CLEAR 80 68 66 SE7 29.86S  
CLARKSDALE N/A 84 84 100 SE5 29.87R HX 104  
CORINTH CLEAR 77 72 83 CALM 29.90S  
IUKA N/A 80 72 75 CALM 29.92S  
GREENWOOD CLEAR 80 67 64 CALM 29.88R  
COLUMBUS CLEAR 78 68 71 SE7 29.87R  
STARKVILLE CLEAR 79 70 73 CALM 29.89S  
GOLDEN TRIANGL CLEAR 82 68 62 SE8 29.91S  
 
   
..SOUTHEAST MISSOURI
 
 
 
CITY SKY/WX TMP DP RH WIND PRES REMARKS
 
KENNETT CLEAR 82 -27 1 S6 29.85S  
MALDEN CLEAR 82 64 54 CALM 29.88R  
WEST PLAINS CLEAR 79 64 60 SE5 29.88S  
POPLAR BLUFF CLEAR 80 66 62 S5 29.85S  
CAPE GIRARDEAU PTCLDY 77 68 73 S5 29.86S  
 
   
..NORTHWEST ALABAMA
 
 
 
CITY SKY/WX TMP DP RH WIND PRES REMARKS
 
MUSCLE SHOALS MOCLDY 80 67 64 SE5 29.93R  
 
   
..MIDDLE TENNESSEE
 
 
 
CITY SKY/WX TMP DP RH WIND PRES REMARKS
 
NASHVILLE MOCLDY 80 62 54 S6 29.93R  
CLARKSVILLE PTCLDY 81 65 58 S3 29.90S  
DICKSON PTCLDY 75 68 78 CALM 29.92S  
COLUMBIA CLEAR 77 64 65 S5 29.91S  
LAWRENCEBURG CLEAR 77 64 65 CALM 29.94S  
LEWISBURG CLEAR 75 66 73 CALM 29.94R  
 
   
..WESTERN KENTUCKY
 
 
 
CITY SKY/WX TMP DP RH WIND PRES REMARKS
 
PADUCAH CLEAR 79 65 62 CALM 29.87R  
FORT CAMPBELL PTCLDY 81 65 56 S5 29.89S  
 
   
..CENTRAL ARKANSAS
 
 
 
CITY SKY/WX TMP DP RH WIND PRES REMARKS
 
LITTLE ROCK PTCLDY 83 66 56 S6 29.84R  
 
SKY/WX REPORTED AS FAIR MEANS FEW OR NO CLOUDS BELOW  
12 THOUSAND FEET.  
 
 
 
CLICK HERE TO GO TO PREVIOUS BULLETINS.

The Nexlab TN Page
The Nexlab MS Page
The Nexlab AR Page Main Text Page